Norfork Lake Weather Center

Moon Phase Calendar



Norfork Lake Water Level
Online Cameras

 


      

Current Conditions in Baxter
1/30/2023 12:20:21 PM

24°F
Feels Like 14
Clouds
Humidity
100%
Pressure
30.36"
Wind
10 mph (NNW)
Dew Point
24°F
UV Index
1/10 (Low)
Visibility
6 mi

Hourly Forecast

Date & Time Mon, Jan 30
12:00 PM
Mon, Jan 30
1:00 PM
Mon, Jan 30
2:00 PM
Mon, Jan 30
3:00 PM
Mon, Jan 30
4:00 PM
Mon, Jan 30
5:00 PM
Mon, Jan 30
6:00 PM
Mon, Jan 30
7:00 PM
Mon, Jan 30
8:00 PM
Mon, Jan 30
9:00 PM
Mon, Jan 30
10:00 PM
Mon, Jan 30
11:00 PM
Tue, Jan 31
12:00 AM
Tue, Jan 31
1:00 AM
Tue, Jan 31
2:00 AM
Tue, Jan 31
3:00 AM
Tue, Jan 31
4:00 AM
Tue, Jan 31
5:00 AM
Tue, Jan 31
6:00 AM
Tue, Jan 31
7:00 AM
Tue, Jan 31
8:00 AM
Tue, Jan 31
9:00 AM
Tue, Jan 31
10:00 AM
Tue, Jan 31
11:00 AM
Tue, Jan 31
12:00 PM
Tue, Jan 31
1:00 PM
Tue, Jan 31
2:00 PM
Tue, Jan 31
3:00 PM
Tue, Jan 31
4:00 PM
Tue, Jan 31
5:00 PM
Tue, Jan 31
6:00 PM
Tue, Jan 31
7:00 PM
Tue, Jan 31
8:00 PM
Tue, Jan 31
9:00 PM
Tue, Jan 31
10:00 PM
Tue, Jan 31
11:00 PM
Wed, Feb 1
12:00 AM
Wed, Feb 1
1:00 AM
Wed, Feb 1
2:00 AM
Wed, Feb 1
3:00 AM
Wed, Feb 1
4:00 AM
Wed, Feb 1
5:00 AM
Wed, Feb 1
6:00 AM
Wed, Feb 1
7:00 AM
Wed, Feb 1
8:00 AM
Wed, Feb 1
9:00 AM
Wed, Feb 1
10:00 AM
Wed, Feb 1
11:00 AM
Condition
Clouds

Clouds

Clouds

Snow

Snow

Snow

Snow

Snow

Snow

Snow

Clouds

Clouds

Clouds

Clouds

Clouds

Clouds

Clouds

Clouds

Clouds

Clouds

Clouds

Clouds

Clouds

Clouds

Clouds

Snow

Snow

Snow

Snow

Snow

Clouds

Clouds

Clouds

Clouds

Clouds

Clouds

Clouds

Clouds

Clouds

Clouds

Clouds

Clouds

Clouds

Clouds

Clouds

Clouds

Clouds

Clouds
Temperature 24°F25°F25°F26°F27°F27°F27°F27°F27°F27°F27°F27°F27°F27°F26°F26°F26°F26°F25°F24°F24°F25°F27°F28°F29°F28°F27°F26°F26°F26°F27°F27°F27°F27°F27°F26°F27°F25°F25°F25°F23°F24°F24°F25°F25°F28°F31°F33°F
Feels Like 15°F16°F18°F18°F19°F21°F22°F21°F20°F21°F22°F22°F21°F21°F20°F20°F20°F20°F19°F18°F18°F19°F21°F23°F25°F24°F22°F20°F22°F23°F22°F23°F23°F27°F27°F26°F27°F25°F25°F25°F23°F24°F24°F25°F22°F24°F26°F28°F
Cloudiness 100%100%100%100%100%100%100%100%100%100%100%100%100%100%100%100%100%100%100%100%100%100%100%100%100%100%100%100%100%100%100%100%100%100%100%99%99%100%100%100%100%100%100%100%100%92%94%95%
Visibility 6 mi6 mi6 mi2 mi6 mi1 mi1 mi1 mi0 mi2 mi6 mi6 mi6 mi6 mi6 mi6 mi6 mi6 mi6 mi6 mi6 mi6 mi6 mi6 mi6 mi1 mi0 mi0 mi0 mi6 mi6 mi6 mi6 mi6 mi6 mi6 mi6 mi6 mi6 mi6 mi6 mi6 mi6 mi6 mi6 mi6 mi6 mi6 mi
Precipitation 0%0%0%41%62%79%94%100%100%100%80%80%78%4%4%4%2%0%0%0%0%0%0%0%4%72%100%100%100%100%80%0%0%0%0%0%0%0%0%0%0%0%0%0%0%0%0%0%
Humidity 100%94%88%86%84%89%91%94%94%93%91%90%90%89%88%87%85%84%86%87%83%75%72%71%70%83%94%95%95%93%92%92%92%91%95%95%95%98%97%97%98%97%97%96%95%89%84%83%
Dew Point 24°F23°F23°F23°F23°F23°F24°F25°F25°F25°F25°F24°F24°F24°F23°F22°F22°F21°F21°F20°F19°F18°F19°F20°F20°F23°F25°F25°F25°F24°F24°F25°F25°F25°F25°F25°F25°F24°F23°F24°F22°F23°F23°F23°F24°F25°F26°F28°F
Pressure 30.36"30.36"30.36"30.36"30.39"30.42"30.42"30.42"30.39"30.42"30.42"30.42"30.42"30.42"30.42"30.42"30.42"30.42"30.45"30.45"30.45"30.45"30.45"30.42"30.42"30.39"30.39"30.39"30.39"30.42"30.39"30.39"30.39"30.42"30.39"30.39"30.39"30.39"30.39"30.39"30.39"30.39"30.39"30.42"30.39"30.42"30.42"30.39"
Wind Speed 7.7 mph7.3 mph6.9 mph7 mph6.8 mph4.7 mph4.2 mph4.4 mph6 mph4.8 mph4.7 mph4.8 mph4.8 mph4.7 mph5.4 mph5.1 mph4.8 mph4.6 mph4.1 mph4.3 mph5 mph5.4 mph5.1 mph5.1 mph4 mph3.1 mph3.8 mph6 mph3.8 mph3.2 mph3.8 mph3.7 mph3.8 mph2 mph1.3 mph0.5 mph2.6 mph0.3 mph2.2 mph1.5 mph1.5 mph1.9 mph2.4 mph2.5 mph3.2 mph3.9 mph4.2 mph4.8 mph
Wind
Direction
349°
N
355°
N
17°
NNE

N
352°
N
351°
N
356°
N
21°
NNE
58°
ENE
29°
NNE
19°
NNE
20°
NNE
25°
NNE
21°
NNE
21°
NNE
24°
NNE
32°
NNE
35°
NE
29°
NNE
32°
NNE
33°
NNE
39°
NE
35°
NE
43°
NE
18°
NNE
15°
NNE
338°
NNW
349°
N
350°
N
340°
NNW
357°
N

N
29°
NNE
34°
NE
355°
N
153°
SSE
38°
NE
40°
NE
34°
NE
37°
NE
36°
NE
92°
E
81°
E
57°
ENE
99°
E
87°
E
107°
ESE
100°
E

Daily Forecast

Date High Low Precip. Humidity
Today
Jan 30

Snow
30 °F
24 °F
100%
100%
Tuesday
Jan 31

Snow
29 °F
24 °F
100%
70%
Wednesday
Feb 1

Snow
37 °F
23 °F
65%
82%
Thursday
Feb 2

Rain
44 °F
32 °F
94%
93%
Friday
Feb 3

Clear
42 °F
24 °F
0%
65%
Saturday
Feb 4

Clouds
43 °F
30 °F
0%
74%
Sunday
Feb 5

Clear
55 °F
35 °F
0%
62%
Monday
Feb 6

Clouds
47 °F
30 °F
0%
53%
Tuesday
Feb 7

Rain
54 °F
39 °F
59%
84%
Wednesday
Feb 8

Rain
57 °F
40 °F
100%
91%
Thursday
Feb 9

Clouds
57 °F
36 °F
0%
53%
Friday
Feb 10

Rain
45 °F
36 °F
92%
57%
Saturday
Feb 11

Snow
36 °F
24 °F
100%
100%
Sunday
Feb 12

Rain
41 °F
19 °F
66%
80%
Monday
Feb 13

Snow
44 °F
23 °F
80%
64%
Tuesday
Feb 14

Clouds
47 °F
29 °F
0%
63%

Temperature 8-14 Day Outlook



Precipitation 8-14 Day Outlook






About Us
Contact Us
Site Map
Search Site
Advertise With Us
   
Norfork.USLakes.info
THE NORFORK LAKE WEBSITE

Copyright 2023, Lakes Online
Privacy    |    Legal